User: anonymous   Login
Location: Coupvray
(48.8929°N, 2.7967°E)
Time: 10:43:56
(UTC+00:00)
Language:

Resurs 1-4 Rocket - Orbit

View from above orbital plane
View from above orbital plane
View from above satellite
View from above satellite

Ground track
Ground track

The orbit data is extracted from the following two-line orbital elements,

1 25400U 98043G   20270.79155426 -.00000019  00000-0  10165-4 0  9993
2 25400  98.6115 204.8704 0010742  44.3680 315.8358 14.25461061155685
Epoch (UTC): 26 September 2020 18:59:50
Eccentricity: 0.0010742
inclination: 98.6115°
perigee height: 799 km
apogee height: 814 km
right ascension of ascending node: 204.8704°
argument of perigee: 44.3680°
revolutions per day: 14.25461061
mean anomaly at epoch: 315.8358°
orbit number at epoch: 15568

The dashed part of the orbit path shows where the satellite is in the earth's shadow,  

DLR